Location: Central Falls
(41.8900°N, 71.3929°W)
Time: 11:28:08
(UTC+00:00)

A-11 Canister half - Pass Details

Date: 09 December 2023
Orbit: 1526 x 1682 km, 47.3° (Epoch: 20 February)

Event Time Altitude Azimuth Distance (km) Brightness Sun altitude
Rises 22:32:15 0° 233° (SW) 4,899 13.1 -14.0°
Reaches altitude 10° 22:35:23 10° 232° (SW) 3,924 12.3 -14.6°
Maximum altitude 22:45:29 77° 148° (SSE) 1,718 9.2 -16.4°
Enters shadow 22:52:33 23° 67° (ENE) 3,019 9.9 -17.6°
Drops below altitude 10° 22:55:35 10° 65° (ENE) 3,927 - -18.2°
Sets 22:58:43 0° 64° (ENE) 4,903 - -18.7°
